Regional Weather Roundup
Issued by NWS

Home | Current Version | Previous Version | Text Only | Print | Product List | Glossary Off
Versions: 1 2 3 4 5 6 7 8 9 10 11 12 13 14 15 16 17 18 19 20 21 22 23 24 25 26 27 28 29 30 31 32 33 34 35 36 37 38 39 40 41 42 43 44 45 46 47 48 49 50

144
ASUS43 KLSX 121057
RWRMO

WEATHER SUMMARY FOR MISSOURI
NATIONAL WEATHER SERVICE SPRINGFIELD MO
500 AM CST FRI FEB 12 2016

NOTE: "FAIR" INDICATES FEW OR NO CLOUDS BELOW 12,000 FEET WITH NO
       SIGNIFICANT WEATHER AND/OR OBSTRUCTIONS TO VISIBILITY.
       CURRENT SKY AND/OR WEATHER CONDITIONS ARE NOT AVAILABLE FOR
       CHILLICOTHE AND FARMINGTON.

MOZ001>031-035>038-043-044-053-054-121200-
...NORTHERN AND WESTERN MISSOURI...

CITY           SKY/WX    TMP DP  RH WIND       PRES   REMARKS
KANSAS CTY INT MOCLDY    25  20  81 N9        30.23R WCI  15
LEE`S SUMMIT   CLOUDY    28  21  75 N7        30.23R WCI  21
ST JOSEPH      CLOUDY    28  20  71 N5        30.26R WCI  23
CHILLICOTHE      N/A     26  19  74 CALM      30.26R

$$
MOZ066>068-077>081-088>096-101>105-121200-
...SOUTHWEST MISSOURI...

CITY           SKY/WX    TMP DP  RH WIND       PRES   REMARKS
SPRINGFIELD    CLEAR     27  19  72 CALM      30.16R
JOPLIN         CLEAR     30  22  72 VRB3      30.19R

$$
MOZ032>034-039>042-045>050-055>058-069>072-121200-
...CENTRAL MISSOURI...

CITY           SKY/WX    TMP DP  RH WIND       PRES   REMARKS
COLUMBIA       NOT AVBL
JEFFERSON CITY CLOUDY    27  22  81 CALM      30.23R
ROLLA          CLOUDY    27  23  85 N5        30.16R WCI  22
SEDALIA        CLOUDY    29  24  82 N3        30.22R

$$
MOZ051-052-059>065-121200-
...EAST CENTRAL MISSOURI...

CITY           SKY/WX    TMP DP  RH WIND       PRES   REMARKS
ST LOUIS INTL  FLURRIES  26  21  81 CALM      30.22R

$$
MOZ072>076-082>087-097>100-106>115-121200-
...SOUTH CENTRAL AND SOUTHEAST MISSOURI...

CITY           SKY/WX    TMP DP  RH WIND       PRES   REMARKS
CAPE GIRARDEAU CLOUDY    29  24  82 N5        30.21R WCI  24
POPLAR BLUFF   PTCLDY    27  22  81 N3        30.20R
WEST PLAINS    CLEAR     25  18  74 CALM      30.16S

$$



USA.gov is the U.S. government's official web portal to all federal, state and local government web resources and services.